Regional Weather Roundup
Issued by NWS Green Bay, WI

Home | Current Version | Previous Version | Text Only | Print | Product List | Glossary On
Versions: 1 2 3 4 5 6 7 8 9 10 11 12 13 14 15 16 17 18 19 20 21 22 23 24 25 26 27 28 29 30 31 32 33 34 35 36 37 38 39 40 41 42 43 44 45 46 47 48 49 50
000
ASUS43 KGRB 271210
RWRGRB

NORTH-CENTRAL AND NORTHEAST WISCONSIN REGIONAL WEATHER ROUNDUP
NATIONAL WEATHER SERVICE GREEN BAY WI
600 AM CST THU NOV 27 2014

WIZ005-009-010>012-018-019-271300-
NORTH CENTRAL WISCONSIN

CITY           SKY/WX    TMP DP  RH WIND       PRES   REMARKS
IRONWOOD       CLOUDY    10   7  85 NW5       30.30S WCI   2
MANITOWISH WTR LGT SNOW   3  -1  85 NW7       30.28R WCI -10
ARBOR VITAE    LGT SNOW   8   4  85 NW7       30.27R WCI  -4
EAGLE RIVER    PTCLDY     4   1  84 CALM      30.25S
LAND O LAKES   LGT SNOW   5   2  88 NW5       30.26R WCI  -4
RHINELANDER    MOCLDY     6   3  87 NW5       30.27R WCI  -3
PHILLIPS       PTCLDY     2  -2  85 NW6       30.31R WCI -10
ANTIGO         MOCLDY     8   4  83 N10       30.26R WCI  -6
TOMAHAWK       CLOUDY     7   2  82 CALM      30.29S
MERRILL        LGT SNOW   9   6  84 N8        30.29R WCI  -3
$$

WIZ013-073-271300-
NORTHEAST WISCONSIN

CITY           SKY/WX    TMP DP  RH WIND       PRES   REMARKS
IRON MOUNTAIN  CLEAR      6   1  80 NW8       30.26R WCI  -7
MARINETTE      CLOUDY    16   9  73 N10       30.27R WCI   3
OCONTO         CLOUDY    17  10  75 NW10G16   30.29R WCI   5
$$

WIZ017-030-035>037-045-271300-
CENTRAL WISCONSIN

CITY           SKY/WX    TMP DP  RH WIND       PRES   REMARKS
MEDFORD        FLURRIES   6   2  84 NW8       30.29S WCI  -7
WAUSAU         FLURRIES  12   7  80 NW10      30.28R WCI  -1
MOSINEE        SNOWSHWR  12  10  92 N8        30.28R WCI   1
MARSHFIELD     LGT SNOW  12   6  77 NW13      30.30R WCI  -3
WISC RAPIDS    LGT SNOW  15   8  73 NW12      30.32R WCI   2
STEVENS POINT  LGT SNOW  12   8  84 NW8       30.30R WCI   1
WAUPACA        PTCLDY    18  13  80 NW8       30.29R WCI   8
SHAWANO        CLOUDY    20  13  74 N7        30.29R
CLINTONVILLE   FLURRIES  21  16  79 N7        30.28R
$$

WIZ038-039-048-051-271300-
FOX VALLEY

CITY           SKY/WX    TMP DP  RH WIND       PRES   REMARKS
NWS GREEN BAY  FLURRIES  20  14  77 N12       30.28R WCI   8
APPLETON       FLURRIES  19  18  93 NW10      30.26R WCI   8
OSHKOSH        LGT SNOW  20  16  84 MISG      30.26R FOG
FOND DU LAC    FLURRIES  21  16  81 NW13      30.26R WCI   9
$$

WIZ022-050-052-271300-
EAST CENTRAL WISCONSIN

CITY           SKY/WX    TMP DP  RH WIND       PRES   REMARKS
STURGEON BAY   CLOUDY    21  12  68 N18       30.24R WCI   6
MANITOWOC      CLOUDY    22  19  89 NW14      30.25R WCI   9
SHEBOYGAN      CLOUDY    22  18  85 NW10      30.24R
$$

LMZ563-521-522-541>543-271300-
LAKESHORE

STATION/POSITION TIME  TEMP    WIND        PRES    VSBY  WAVE
                       AIR SEA DIR/SP/G                  HT/PER
                 (UTC) (F)     (DEG/KT/KT) (MB)    (MI)  (FT/S)
SHEBOYGAN LKSHOR 1200   24 35  320/ 12/ 14 1025.3R
KEWAUNEE LKSHORE 1200   21     320/  9/ 15 1023.0R
NORTHPORT PIER   1200   23     340/ 21/ 25 1024.0S
N MID LAKE BUOY  1200   25 42  340/ 23/ 29 1023.6R         5/ 6
SISTER BAY LKSHO 1100          340/ 21/ 26   N/A
CHAMBERS ISLAND  1200   21     310/ 18/ 22 1024.7R
MENOMINEE LKSHOR 1200   20     310/ 17/ 24 1025.4R
$$



USA.gov is the U.S. government's official web portal to all federal, state and local government web resources and services.